Location: Recife
(8.0585°S, 34.8848°W)
Time: 10:13:17
(UTC-03:00)

Vanguard 2 - Pass Details

Date: 18 April 2026
Orbit: 554 x 2894 km, 32.9° (Epoch: 8 May)

Event Time Altitude Azimuth Distance (km) Brightness Sun altitude
Rises 17:35:30 0° 322° (NW) 3,975 12.0 -5.6°
Reaches altitude 10° 17:37:55 10° 328° (NNW) 3,269 11.4 -6.2°
Maximum altitude 17:46:12 49° 42° (NE) 2,192 9.6 -8.2°
Enters shadow 17:58:46 12° 110° (ESE) 4,952 11.0 -11.3°
Drops below altitude 10° 17:59:30 10° 111° (ESE) 5,150 - -11.4°
Sets 18:04:22 0° 116° (ESE) 6,423 - -12.6°
